TimeCDT,TemperatureF,Dew PointF,Humidity,Sea Level PressureIn,VisibilityMPH,Wind Direction,Wind SpeedMPH,Gust SpeedMPH,PrecipitationIn,Events,Conditions,WindDirDegrees,DateUTC
12:53 AM,23.0,18.0,81,30.09,9.0,Calm,Calm,-,N/A,,Clear,0,2013-03-23 05:53:00
1:53 AM,24.1,19.0,81,30.09,9.0,North,4.6,-,N/A,,Clear,350,2013-03-23 06:53:00
2:53 AM,21.9,18.0,85,30.09,9.0,Calm,Calm,-,N/A,,Clear,0,2013-03-23 07:53:00
3:53 AM,21.9,17.1,82,30.10,8.0,Calm,Calm,-,N/A,,Clear,0,2013-03-23 08:53:00
4:53 AM,23.0,18.0,81,30.09,10.0,NNW,3.5,-,N/A,,Clear,340,2013-03-23 09:53:00
5:53 AM,24.1,16.0,71,30.10,10.0,NNW,3.5,-,N/A,,Clear,340,2013-03-23 10:53:00
6:53 AM,19.9,15.1,81,30.12,7.0,WNW,3.5,-,N/A,,Clear,300,2013-03-23 11:53:00
7:53 AM,23.0,17.1,78,30.12,6.0,NW,3.5,-,N/A,,Haze,320,2013-03-23 12:53:00
8:53 AM,28.0,19.0,69,30.15,8.0,WNW,4.6,-,N/A,,Clear,290,2013-03-23 13:53:00
9:53 AM,33.1,21.9,64,30.17,10.0,North,3.5,-,N/A,,Clear,350,2013-03-23 14:53:00
10:53 AM,34.0,19.9,56,30.15,10.0,NE,4.6,-,N/A,,Clear,50,2013-03-23 15:53:00
11:53 AM,36.0,19.9,52,30.15,10.0,Variable,3.5,-,N/A,,Clear,0,2013-03-23 16:53:00
12:53 PM,37.0,19.0,48,30.14,10.0,ENE,4.6,-,N/A,,Scattered Clouds,60,2013-03-23 17:53:00
1:53 PM,37.0,23.0,57,30.12,10.0,East,8.1,-,N/A,,Partly Cloudy,80,2013-03-23 18:53:00
2:53 PM,37.0,24.1,59,30.12,10.0,East,4.6,-,N/A,,Mostly Cloudy,80,2013-03-23 19:53:00
3:53 PM,36.0,24.1,62,30.12,10.0,NE,8.1,-,N/A,,Mostly Cloudy,40,2013-03-23 20:53:00
4:53 PM,35.1,27.0,72,30.11,10.0,ENE,13.8,-,N/A,,Mostly Cloudy,70,2013-03-23 21:53:00
5:53 PM,33.1,25.0,72,30.10,10.0,ENE,13.8,-,N/A,,Clear,70,2013-03-23 22:53:00
6:53 PM,30.9,26.1,82,30.09,10.0,ENE,11.5,-,N/A,,Clear,70,2013-03-23 23:53:00
7:53 PM,28.9,24.1,82,30.09,10.0,East,4.6,-,N/A,,Clear,80,2013-03-24 00:53:00
8:53 PM,30.0,25.0,82,30.09,10.0,NNE,5.8,-,N/A,,Overcast,20,2013-03-24 01:53:00
9:53 PM,30.9,24.1,76,30.07,10.0,NNE,8.1,-,N/A,,Overcast,30,2013-03-24 02:53:00
10:53 PM,32.0,24.1,73,30.06,10.0,NE,9.2,-,N/A,,Overcast,40,2013-03-24 03:53:00
11:53 PM,30.9,23.0,72,30.06,10.0,NNE,5.8,-,N/A,,Overcast,20,2013-03-24 04:53:00